Zurück zum Katalog

STARLINK-11731

AktivKommunikationVLEO
NORAD 64371·PAYLOAD·🇺🇸 United States

Gestartet Jun 13, 2025 von Cape Canaveral Space Force Station

Loading…

Nächste Überflüge (nächste 24 Stunden)

TLE

AktuellSource: CelesTrak SupGP

Epoche: Sep 14, 2026, 23:02 UTC

1 64371C 25127B   26257.96020833  .00003513  00000+0  27264-4 0  2574
2 64371  43.0010  23.9598 0001777 268.2476 197.1770 15.70853097    12

Verfolge STARLINK-11731 in Echtzeit mit AllMySat

Download on the App Store